Simultaneous Nadir Overpasses (SNOs) Predictions

Prediction of SNOs between GOES-16 and NOAA-20 Satellite Orbit:

Table of predicted SNOs for the next 14.0 days since TLE Epoch: 12/9/2023
Index Date Time (GOES-16) GOES-16 Lat,Lon NOAA-20 Lat,Lon Distance(km) Time Diff (sec)
1 12/09/2023 18:27:00 0.01, -75.21 -0.13, -75.77 63.64 80
2 12/10/2023 18:10:56 0.00, -75.22 0.90, -71.24 453.13 80
3 12/12/2023 06:30:03 -0.00, -75.21 0.31, -76.50 148.24 80
4 12/13/2023 06:11:19 0.00, -75.21 -0.71, -71.98 368.40 80
5 12/14/2023 18:33:15 -0.00, -75.22 -0.47, -77.28 234.86 80
6 12/15/2023 18:17:10 -0.01, -75.22 0.55, -72.75 282.06 80
7 12/17/2023 06:38:58 0.00, -75.22 0.65, -78.01 318.47 80
8 12/18/2023 06:17:33 0.00, -75.23 -0.38, -73.48 198.72 80
9 12/19/2023 18:39:29 -0.00, -75.25 -0.80, -78.79 403.47 80
10 12/20/2023 18:23:25 -0.00, -75.26 0.23, -74.26 114.41 80
11 12/22/2023 06:45:12 0.00, -75.28 0.97, -79.53 484.34 80
